Content
SEND FEEDBACK

Daily
Averages
Monthly
Summary
United States of America

STEAMBOAT SPRINGS, COLORADO


Home > North America > United States > Colorado
Elevation: 6917 feet     Latitude: 40 30N     Longitude: 106 50W

WEATHER
 
SELECT A DAY
Number of Records: 82,684;   Date Range: 1/3/95 - 7/27/14
 
SHARE

PRINT THIS DATA

[ ← Previous Day ]
WEATHER ALMANAC - FEBRUARY 4, 2013
[ Next Day → ]
[ °C ]   °F
Weather ElementAverageHighLow
Temperature14.9 °F28.4 °F (2:15 pm)-1.1 °F (7:35 am)
Dewpoint7.5 °F14 °F (4:35 pm)-6.2 °F (7:35 am)
Humidity74.3 %94 % (12:35 am)47 % (1:55 pm)
Barometer30.11 in30.15 in (10:15 am)30.05 in (2:55 pm)
Wind Speed0.2 mph8.1 mph (7:15 pm)
Wind Gust16.1 mph (7:15 pm)
Weather ElementAverage
Visibility10 mi
Wind DirectionN (3.1 °)

Weather ElementTotal
Precipitation---
Heating Degree Days51.4 (Base 65)
Averaged from 65 records on February 4, 2013
WEATHER CONDITIONS BREAKOUT
WIND DIRECTION BREAKOUT
WEATHER BY HOUR - FEBRUARY 4, 2013
[ °C ]   °F
Local TimeTemperatureDewpointHumidityBarometerVisibilityWind DirectionWind SpeedGust SpeedPrecipitationEventsConditions
12:35 AM10.2 °F8.8 °F94 %30.12 in10.0 miCalmClear
12:55 AM9.3 °F7.7 °F93 %30.13 in10.0 miCalmClear
1:15 AM8.6 °F6.8 °F92 %30.13 in10.0 miCalmClear
1:35 AM7.7 °F6.1 °F93 %30.12 in10.0 miCalmClear
1:55 AM6.4 °F4.5 °F92 %30.13 in10.0 miCalmClear
2:15 AM4.5 °F2.3 °F91 %30.13 in10.0 miCalmClear
3:55 AM5.4 °F2.7 °F89 %30.12 in10.0 miCalmClear
4:15 AM3.7 °F0.5 °F86 %30.12 in10.0 miCalmClear
4:35 AM3.9 °F1.2 °F89 %30.12 in10.0 miCalmClear
4:55 AM3.9 °F0.7 °F86 %30.12 in10.0 miCalmClear
5:15 AM4.1 °F1.2 °F88 %30.12 in10.0 miCalmClear
5:35 AM3.7 °F1.2 °F89 %30.13 in10.0 miCalmClear
5:55 AM4.6 °F1.8 °F88 %30.12 in10.0 miCalmClear
6:15 AM1.4 °F-1.7 °F87 %30.12 in7.0 miCalmClear
6:35 AM3.9 °F1.0 °F88 %30.12 in10.0 miCalmClear
6:55 AM1.6 °F-2.2 °F84 %30.12 in10.0 miCalmClear
7:15 AM2.3 °F-0.9 °F86 %30.13 in10.0 miCalmClear
7:35 AM-1.1 °F-6.2 °F79 %30.13 in10.0 miCalmClear
7:55 AM1.8 °F-2.4 °F83 %30.13 in10.0 miCalmClear
8:15 AM2.3 °F-0.8 °F87 %30.14 in10.0 miCalmClear
8:35 AM5.0 °F1.9 °F87 %30.14 in10.0 miCalmScattered Clouds
8:55 AM5.9 °F1.6 °F82 %30.14 in10.0 miCalmScattered Clouds
9:15 AM7.7 °F5.5 °F91 %30.13 in10.0 miCalmScattered Clouds
9:35 AM11.8 °F9.1 °F89 %30.13 in10.0 miCalmClear
9:55 AM9.5 °F5.2 °F83 %30.14 in10.0 miCalmScattered Clouds
10:15 AM15.6 °F13.8 °F93 %30.15 in10.0 miCalmMostly Cloudy
10:35 AM18.7 °F12.0 °F75 %30.14 in10.0 miCalmOvercast
10:55 AM16.7 °F7.9 °F68 %30.15 in10.0 miCalmMostly Cloudy
11:15 AM19.8 °F10.2 °F67 %30.14 in10.0 miCalmScattered Clouds
11:35 AM19.4 °F7.5 °F60 %30.13 in10.0 miCalmClear
11:55 AM18.9 °F7.7 °F62 %30.11 in10.0 miCalmScattered Clouds
12:15 PM17.2 °F6.1 °F62 %30.11 in10.0 miCalmScattered Clouds
12:35 PM22.3 °F6.8 °F52 %30.10 in10.0 miCalmScattered Clouds
12:55 PM22.8 °F9.1 °F56 %30.09 in10.0 miCalmMostly Cloudy
1:15 PM19.9 °F9.9 °F65 %30.08 in10.0 miCalmOvercast
1:35 PM22.1 °F9.0 °F57 %30.08 in10.0 miCalmOvercast
1:55 PM27.3 °F9.5 °F47 %30.07 in10.0 miCalmMostly Cloudy
2:15 PM28.4 °F10.9 °F48 %30.06 in10.0 miCalmMostly Cloudy
2:35 PM27.1 °F11.7 °F52 %30.06 in10.0 miCalmMostly Cloudy
2:55 PM28.0 °F12.9 °F53 %30.05 in10.0 miCalmScattered Clouds
3:15 PM24.1 °F11.3 °F58 %30.07 in10.0 miCalmMostly Cloudy
3:35 PM25.3 °F12.6 °F58 %30.07 in10.0 miCalmOvercast
3:55 PM27.5 °F12.0 °F52 %30.07 in10.0 miCalmMostly Cloudy
4:15 PM28.4 °F13.5 °F54 %30.07 in10.0 miCalmOvercast
4:35 PM27.1 °F14.0 °F58 %30.07 in10.0 miCalmOvercast
4:55 PM26.1 °F13.5 °F59 %30.07 in10.0 miCalmScattered Clouds
5:15 PM23.5 °F13.5 °F65 %30.08 in10.0 miCalmClear
5:35 PM21.6 °F11.8 °F66 %30.08 in10.0 miCalmClear
6:15 PM21.7 °F12.6 °F68 %30.09 in10.0 miCalmMostly Cloudy
6:35 PM21.4 °F12.0 °F67 %30.09 in10.0 miEast (100°)3.5 mphMostly Cloudy
6:55 PM22.6 °F12.7 °F66 %30.10 in10.0 miCalmOvercast
7:15 PM21.0 °F11.5 °F67 %30.09 in10.0 miEast (100°)8.1 mph16.1 mphOvercast
7:55 PM21.9 °F11.5 °F64 %30.09 in10.0 miCalmOvercast
8:15 PM19.9 °F11.5 °F70 %30.10 in10.0 miCalmMostly Cloudy
8:35 PM19.2 °F11.3 °F71 %30.10 in10.0 miCalmMostly Cloudy
8:55 PM19.4 °F11.7 °F72 %30.10 in10.0 miCalmScattered Clouds
9:15 PM18.1 °F11.3 °F75 %30.11 in10.0 miCalmMostly Cloudy
9:35 PM16.9 °F10.8 °F77 %30.10 in10.0 miCalmOvercast
9:55 PM15.4 °F9.7 °F78 %30.10 in10.0 miCalmScattered Clouds
10:15 PM18.3 °F10.9 °F73 %30.10 in10.0 miCalmClear
10:35 PM16.0 °F10.2 °F78 %30.11 in10.0 miCalmClear
10:55 PM14.4 °F9.1 °F80 %30.11 in10.0 miCalmClear
11:15 PM15.6 °F10.2 °F79 %30.11 in10.0 miCalmClear
11:35 PM14.2 °F9.3 °F81 %30.11 in10.0 miCalmScattered Clouds
11:55 PM14.5 °F9.0 °F79 %30.13 in10.0 miCalmMostly Cloudy
Hourly data recorded from KSBS, located miles away from Steamboat Springs, Colorado







STORIES FROM OUR PARTNERS